Belmar-Farmingdale, NJ

5:37 AM EST on December 13, 2019 (GMT -0500)
Allaire

Weather History for KBLM - October, 2019

Change the Weather History Date:

Friday, October 4, 2019

  Actual Average Record
Temperature  
Mean Temperature 59 °F -  
Max Temperature 68 °F 65 °F 86 °F (2013)
Min Temperature 48 °F 49 °F 39 °F (1996)
Degree Days  
Heating Degree Days 6    
Growing Degree Days 9 (Base 50)    
Moisture  
Dew Point 53 °F    
Average Humidity 80    
Maximum Humidity 100    
Minimum Humidity 42    
Precipitation  
Precipitation 0.01 in - - ()
Sea Level Pressure  
Sea Level Pressure 30.04 in    
Wind  
Wind Speed 8 mph ()    
Max Wind Speed 23 mph    
Max Gust Speed 31 mph    
Visibility 7.8 miles    
Events Rain    
Averages and records for this station are not official NWS values.
T = Trace of Precipitation, MM = Missing Value Source: Averaged Metar Reports

Daily Weather History Graph

Daily Weather History Graph

Search for Another Location

Airport or City:

Astronomy

Oct. 04, 2019 Rise Set
Actual Time 6:55 AM EDT 6:34 PM EDT
Civil Twilight 6:28 AM EDT 7:01 PM EDT
Nautical Twilight 5:57 AM EDT 7:32 PM EDT
Astronomical Twilight 5:25 AM EDT 8:04 PM EDT
Moon 1:25 PM EDT (10/4) 11:00 PM EDT (10/4)
Length of Visible Light 12h 32m
Length of Day
11h 38m
Waxing Crescent, 39% of the Moon is Illuminated
Oct 4
Waxing Crescent
Oct 5
First Quarter
Oct 13
Full
Oct 21
Last Quarter
Oct 27
New

Hourly Weather History & Observations

Time (EDT) Temp. Dew Point Humidity Pressure Visibility Wind Dir Wind Speed Gust Speed Precip Events Conditions
12:32 AM 62.6 °F 62.6 °F 100% 29.95 in 1.5 mi WNW 6.9 mph - 0.00 in Rain Light Rain
12:46 AM 62.6 °F 62.6 °F 100% 29.95 in 2.5 mi WNW 8.1 mph - 0.00 in Rain Light Rain
12:53 AM 62.6 °F 62.6 °F 100% 29.95 in 4.0 mi NW 8.1 mph - 0.01 in Rain Light Rain
12:56 AM 62.1 °F 62.1 °F 100% 29.95 in 5.0 mi NW 8.1 mph - 0.01 in Rain Light Rain
1:56 AM 62.1 °F 62.1 °F 100% 29.94 in 8.0 mi WNW 3.5 mph - 0.00 in   Overcast
2:15 AM 62.6 °F 62.6 °F 100% 29.94 in 7.0 mi West 4.6 mph - N/A   Overcast
2:37 AM 62.6 °F 62.6 °F 100% 29.93 in 9.0 mi West 4.6 mph - N/A   Overcast
2:56 AM 62.1 °F 61.0 °F 96% 29.92 in 8.0 mi WSW 3.5 mph - N/A   Overcast
3:22 AM 62.6 °F 60.8 °F 94% 29.92 in 3.0 mi WNW 6.9 mph - N/A   Overcast
3:30 AM 62.6 °F 60.8 °F 94% 29.93 in 2.0 mi WNW 6.9 mph - N/A   Overcast
3:56 AM 62.1 °F 61.0 °F 96% 29.93 in 2.5 mi WNW 6.9 mph - N/A   Overcast
4:05 AM 60.8 °F 60.8 °F 100% 29.93 in 3.0 mi WNW 5.8 mph - N/A   Overcast
4:12 AM 60.8 °F 60.8 °F 100% 29.93 in 2.5 mi West 6.9 mph - N/A   Overcast
4:33 AM 60.8 °F 60.8 °F 100% 29.93 in 4.0 mi West 8.1 mph - N/A   Overcast
4:56 AM 61.0 °F 60.1 °F 97% 29.94 in 10.0 mi West 10.4 mph - N/A   Overcast
5:37 AM 60.8 °F 59.0 °F 94% 29.95 in 10.0 mi WNW 11.5 mph - N/A   Overcast
5:56 AM 59.0 °F 59.0 °F 100% 29.96 in 10.0 mi WNW 11.5 mph - N/A   Overcast
6:36 AM 59.0 °F 57.2 °F 94% 29.96 in 10.0 mi WNW 12.7 mph - N/A   Scattered Clouds
6:56 AM 57.9 °F 57.0 °F 97% 29.97 in 10.0 mi West 8.1 mph - N/A   Clear
7:56 AM 59.0 °F 57.0 °F 93% 29.99 in 10.0 mi WNW 8.1 mph - N/A   Clear
8:56 AM 62.1 °F 55.9 °F 80% 30.01 in 10.0 mi WNW 11.5 mph - N/A   Clear
9:56 AM 64.0 °F 54.0 °F 70% 30.03 in 10.0 mi NW 17.3 mph 25.3 mph N/A   Clear
10:56 AM 66.0 °F 51.1 °F 59% 30.04 in 10.0 mi NW 20.7 mph 31.1 mph N/A   Clear
11:56 AM 66.9 °F 50.0 °F 54% 30.06 in 10.0 mi NW 20.7 mph 27.6 mph N/A   Overcast
12:56 PM 66.9 °F 45.0 °F 45% 30.08 in 10.0 mi NW 23.0 mph 29.9 mph N/A   Mostly Cloudy
1:56 PM 68.0 °F 46.0 °F 45% 30.09 in 10.0 mi NNW 18.4 mph 26.5 mph N/A   Partly Cloudy
2:56 PM 66.0 °F 42.1 °F 42% 30.11 in 10.0 mi NNW 21.9 mph 28.8 mph N/A   Partly Cloudy
3:56 PM 64.0 °F 42.1 °F 45% 30.14 in 10.0 mi NNW 12.7 mph 24.2 mph N/A   Clear
4:56 PM 62.1 °F 41.0 °F 46% 30.16 in 10.0 mi NNW 16.1 mph - N/A   Partly Cloudy
5:56 PM 59.0 °F 41.0 °F 51% 30.19 in 10.0 mi NW 13.8 mph - N/A   Clear
6:56 PM 55.0 °F 41.0 °F 59% 30.22 in 10.0 mi NW 9.2 mph - N/A   Clear
7:56 PM 52.0 °F 41.0 °F 66% 30.25 in 10.0 mi NW 8.1 mph - N/A   Clear
8:56 PM 51.1 °F 39.9 °F 66% 30.27 in 10.0 mi NW 9.2 mph - N/A   Clear
9:56 PM 51.1 °F 41.0 °F 68% 30.30 in 10.0 mi NW 5.8 mph - N/A   Clear
10:56 PM 50.0 °F 41.0 °F 71% 30.31 in 10.0 mi NNW 8.1 mph - N/A   Clear
11:56 PM 48.9 °F 41.0 °F 74% 30.33 in 10.0 mi North 6.9 mph - N/A   Clear